User: anonymous   Login
Location: Unspecified
(0.0000°N, 0.0000°E)
Time: 05:41:43
(UTC+00:00)
Language:

MOZHAYETS 4 - Orbit

View from above orbital plane
View from above orbital plane
View from above satellite
View from above satellite

Ground track
Ground track

The orbit data is extracted from the following two-line orbital elements,

1 27939U 03042A   19294.40701663  .00000080  00000-0  22884-4 0  9997
2 27939  98.0588  67.9233 0013615  37.5016 322.7134 14.66810278858824
Epoch (UTC): 21 October 2019 09:46:06
Eccentricity: 0.0013615
inclination: 98.0588°
perigee height: 661 km
apogee height: 681 km
right ascension of ascending node: 67.9233°
argument of perigee: 37.5016°
revolutions per day: 14.66810278
mean anomaly at epoch: 322.7134°
orbit number at epoch: 85882

The dashed part of the orbit path shows where the satellite is in the earth's shadow,  

DLR